OBJECT AD, 69007

Orbit data source: Space-Track

You're viewing an Uncataloged Satellite

Recently launched and/or uncataloged satellites may have evolving metadata. Metadata may include but not limited to: Owner, Maufacturer, Bus, Motor, and Mission.

OBJECT AD, 69007 is a satellite in SSO that was launched on Sun, 03 May 2026 UTC launched from the Air Force Western Test Range (AFWTR). Unknown objects in Earth's orbit typically refer to objects detected orbiting the Earth but have not yet been identified or cataloged. These objects could be anything from previously untracked satellites, spent rocket stages, debris from satellite collisions, or even natural meteoroids temporarily captured by Earth's gravity.

Loading next visibility...
Identifier
69007, 2026-100AD
Orbit
SSO
Country
Flag of TBDTBD
Related business
None
Manufacturer
Unknown
Mission
Operational spacecraft
Bus & Motor
Unknown
Mass
Unknown
Launch date (UTC)
2026-05-03 (1 week ago)
Launch vehicle
Unknown
Launch site
Air Force Western Test Range (AFWTR)
Object type
Unknown
Shape & HBR
Unknown
Radar Cross Section
RCS unknown

Expand to show TLE details & history
Last TLE update: 10 hours ago

TLE from 10 hours ago
0 OBJECT AD
1 69007U 26100AD  26130.17926632  .00001711  00000-0  82359-4 0  9990
2 69007  97.4080  28.6850 0005640 138.1980 221.9687 15.20102171  1035
Epoch: 2026-05-10T04:18Z
TLE epoch observation values (Epoch: 2026-05-10T04:18:08.610Z)
Latitude
0.00002°
Longitude
96.16306°
Altitude
511.511 km
Speed
7.606 km/s
True Right ascension
01h 54m 44s
True Declination
0° 00' 00"
Sunlit
Object was in daylight at epoch
Visualization orbit readout
Latitude
Unknown
Longitude
Unknown
Altitude
Unknown
Speed
Unknown
Apparent Right ascension
Unknown
Apparent Declination
Unknown
Sunlit
N/A
Visualization observer readout
Local Sidereal Time
22:01:40
Azimuth
Unknown
Elevation
Unknown
Doppler factor
Unknown
Orbital elements
Apogee altitude
506.379 km
Perigee altitude
498.617 km
Semi-major axis
6,880.635 km
Eccentricity
0.00056
Inclination
97.408°
RAAN
28.685°
Arg. of periapsis
138.198°
True anomaly
221.9255°
Mean anomaly
221.9687°
Eccentric anomaly
221.9471°
Mean motion
3.80277 °/min
Orbital period
94.67 mins
BSTAR
0.000082359
Loading maneuver chart data...
Computing Atmospheric mass density...
Loading historical data...
Loading historical data...
Loading historical data...
Loading historical data...
Loading historical data...
Loading historical data...
Loading historical data...

Documentation

Showing up to 5 results
|